User: anonymous   Login
Location: Unspecified
(0.0000°N, 0.0000°E)
Time: 02:50:33
(UTC+00:00)
Language:

Fuji - Orbit

View from above orbital plane
View from above orbital plane
View from above satellite
View from above satellite

Ground track
Ground track

The orbit data is extracted from the following two-line orbital elements,

1 16909U 86061B   17232.53279326 -.00000097 +00000-0 +48259-5 0  9998
2 16909 050.0173 340.9739 0011090 242.7094 206.1628 12.44467018410813
Epoch (UTC): 20 August 2017 12:47:13
Eccentricity: 0.0011090
inclination: 50.0173°
perigee height: 1479 km
apogee height: 1496 km
right ascension of ascending node: 340.9739°
argument of perigee: 242.7094°
revolutions per day: 12.44467018
mean anomaly at epoch: 206.1628°
orbit number at epoch: 41081

The dashed part of the orbit path shows where the satellite is in the earth's shadow,  

DLR